FENGYUN 1C DEB, 35244

Orbit data source: Space-Track

FENGYUN 1C DEB, 35244 is space debris in SSO originally from a launch on Mon, 10 May 1999 UTC launched from the Taiyaun Space Center, China (TSC). Fengyun 1C debris stems from the Chinese weather satellite Fengyun-1C, which was intentionally destroyed by a Chinese anti-satellite missile in 2007. This event dramatically increased the amount of space debris, with thousands of trackable fragments posing hazards to satellites and human spaceflight. The Fengyun 1C debris cloud has become a focal point in discussions about space sustainability and the need for international regulations to prevent the creation of new debris.

Loading next visibility...
Identifier
35244, 1999-025DRC
Orbit
SSO
Country
Flag of CNCN / PRC
Related business
Manufacturer
Unknown
Mission
Spacecraft
Bus & Motor
Unknown
Mass
Unknown
Launch date (UTC)
1999-05-10 (27 years ago)
Launch vehicle
Unknown
Launch site
Taiyaun Space Center, China (TSC)
Object type
Payload
Rocket body
Debris
Shape & HBR
Unknown shape, 0.1 m
Radar Cross Section
Small (<0.1 m²)

Expand to show TLE details & history
Last TLE update: 1 week ago

TLE from 1 week ago
0 FENGYUN 1C DEB
1 35244U 99025DRC 26152.05225890  .00000960  00000-0  58768-3 0  9992
2 35244  98.8174 193.2406 0071494  40.5324 320.1139 14.06947463682161
Epoch: 2026-06-01T01:15Z
TLE epoch observation values (Epoch: 2026-06-01T01:15:15.168Z)
Latitude
-0.00001°
Longitude
-75.11772°
Altitude
833.114 km
Speed
7.457 km/s
True Right ascension
12h 52m 57s
True Declination
0° 00' 00"
Sunlit
Object was in full shadow at epoch
Visualization orbit readout
Latitude
Unknown
Longitude
Unknown
Altitude
Unknown
Speed
Unknown
Apparent Right ascension
Unknown
Apparent Declination
Unknown
Sunlit
N/A
Visualization observer readout
Local Sidereal Time
05:24:33
Azimuth
Unknown
Elevation
Unknown
Doppler factor
Unknown
Orbital elements
Apogee altitude
918.816 km
Perigee altitude
815.219 km
Semi-major axis
7,245.154 km
Eccentricity
0.00715
Inclination
98.8174°
RAAN
193.2406°
Arg. of periapsis
40.5324°
True anomaly
319.58492°
Mean anomaly
320.1139°
Eccentric anomaly
319.84977°
Mean motion
3.51942 °/min
Orbital period
102.29 mins
BSTAR
0.00058768
Loading maneuver chart data...
Computing Atmospheric mass density...
Loading historical data...
Loading historical data...
Loading historical data...
Loading historical data...
Loading historical data...
Loading historical data...
Loading historical data...

Documentation

Showing up to 5 results
|